Погода в Сургуте

Погода в Сургуте : погода сейчас, прогноз погоды и архив. Всё, что Вы хотите узнать о погоде в Сургуте!

Хотите узнать прогноз погоды в Сургуте? Тогда Вам сюда: Погода в Сургуте

Поиск расширенной информации на нашем сайте:

Другие новости

Новости СМИ2

Главная страница сайта

Новости сайта

03.07.2017

Напоминаем, что на нашем специализированном сайте Метеоцентр.Азия вы можете получить высокодетализированные автоматические прогнозы погоды по пунктам России, СНГ и мира в авиационном формате (включающие направление и скорость ветра, видимость, явления погоды, количество и форму облачности, нижнюю и верхнюю границу облачности).


Погода в Сургуте - сегодня

Время (UTC), дата Ветер
(°,м/с) 
Видим.   Явления Облачность Т
(°С)
Тd
(°С)
f(%) Тe
(°С)
Pmin
(гПа)
dP
(гПа)
Po
(мм)
O2
(г/м3)
Тmin Tmax R s Состояние
почвы
00 12.12.17 050 (СВ) 4000 м    6/0 верхняя 
[Ci fib]
-21.6 -23.9 82 -25  1033.6  769  338           
03 12.12.17 тихо ()   6000 м  дымка  8/5 30 м верхняя 
[St|Ci sp]
-21.1 -23.4 82 -21  1034.5  0.9  770  338  -22.5         
06 12.12.17 280 (З) 6000 м  дымка  8/8 30 м 
[Sc]
-19.4 -21.3 85 -20  1034.7  0.3  770  336           
09 12.12.17 280 (З) 5000 м  дымка  6/3 120 м средняя 
[St|Ac trans]
-17.6 -19.6 84 -18  1033.9  -0.7  769  333           
12 12.12.17 280 (З) 6000 м  дымка  4/4 120 м 
[St]
-21.1 -23.4 82 -24  1034.9  0.8  770  338           
18 12.12.17 270 (З) 4200 м  дымка  5/5 100 м 
[St]
-20.1 -22.2 83 -23  1036.2  0.9  771  337           
21 12.12.17 280 (З) 6000 м  дымка  5/5 210 м 
[St]
-21.1 -23.4 82 -26  1036.9  0.6  772  339           
00 13.12.17 240 (ЮЗ) 6000 м  дымка  5/5 150 м 
[St]
-19.9 -22 83 -23  1037.4  0.7  772  337           
03 13.12.17 250 (З) 4000 м  дымка  4/4 120 м 
[St]
-20.7 -22.9 82 -25  1037.9  0.3  772  338  -22.7         
06 13.12.17 250 (З) 6000 м  дымка  4/1 100 м верхняя 
[St|Ci fib]
-20.5 -22.8 82 -25  1038.6  0.7  773  338           
09 13.12.17 230 (ЮЗ) 6000 м  дымка  4/4 120 м 
[St]
-19.1 -21.2 83 -22  1038.8  0.3  773  337           
12 13.12.17 200 (Ю) 6000 м  дымка  ясно 
-19.5 -21.6 83 -22  1038.5  -0.2  773  337           
15 13.12.17 220 (ЮЗ) 6000 м  дымка  ясно 
-18.3 -20.3 84 -22  1038.1  -0.5  772  335    -18.2       
18 13.12.17 220 (ЮЗ) 4000 м    4/4 150 м 
[St]
-18 -20 84 -22  1037.4  -0.6  772  335           
21 13.12.17 210 (ЮЗ) 4000 м    1/1 200 м 
[St]
-17.6 -19.5 85 -22  1037  -0.4  772  334           
00 14.12.17 210 (ЮЗ) 4000 м    4/4 210 м 
[St]
-17.6 -19.5 85 -22  1036.3  -0.7  771  334           
03 14.12.17 190 (Ю) 4000 м    ясно 
-16.4 -18.2 86 -21  1034.9  -1.3  770  332  -18.6         
06 14.12.17 190 (Ю) 4000 м    ясно 
-14.8 -16.5 87 -19  1033.7  -1.1  769  329           
09 14.12.17 200 (Ю) 4000 м    6/0 верхняя 
[Ci fib]
-12.8 -14.4 88 -18  1031.9  -1.8  768  326           
12 14.12.17 200 (Ю) 4000 м    8/0 средняя 
[Ac trans]
-11.7 -13.8 84 -18  1030.6  -1.2  767  324           
15 14.12.17 220 (ЮЗ) 4000 м    6/6 2000 м средняя 
[Ac trans]
-10.1 -12.5 83 -16  1030.3  -0.3  767  322    -10.1       
18 14.12.17 220 (ЮЗ) 1100 м  снег  10/10 480 м 
[Ns]
-9.5 -11.2 87 -15  1030.5  0.2  767  321           
21 14.12.17 220 (ЮЗ) 2700 м  слаб. снег  10/4 1440 м средняя 
[Sc|As op]
-8.8 -10.5 87 -13  1030.3  767  320           
00 15.12.17 220 (ЮЗ) 4000 м  в посл. час снег  10/10 2000 м 
[Ns]
-8.7 -10.6 86 -14  1030.1  -0.2  767  320           
03 15.12.17 220 (ЮЗ) 3800 м  слаб. снег  10/5 1200 м средняя 
[Sc|As op]
-8.6 -10.3 87 -13  1029.8  -0.3  767  320  -10.1         
Время (UTC), дата Ветер
(°,м/с) 
Видим.   Явления Облачность Т
(°С)
Тd
(°С)
f(%) Тe
(°С)
Pmin
(гПа)
dP
(гПа)
Po
(мм)
O2
(г/м3)
Тmin Tmax R s Состояние
почвы

Для получения пояснительной информации подведите курсор к названию столбца.

ПОГОДА в Сургуте - архив

Всё, что Вы хотите узнать о погоде в Сургуте - удобно и подробно!

Выберите нужную дату (начиная с 1 января 2015* года) и нажмите кнопку "Найти".
Будут отображены архивные сводки погоды по пункту Сургут, начиная с указанной даты.


Отображать данные в формате CSV (для использования в таблицах Excel)


Внимание! Наш архив погоды предназначен исключительно для личного некоммерческого использования в познавательных целях. Если Вам необходимы официальные справки о состоянии погоды (для производственных, юридических, коммерческих и т.п. целей), обращайтесь в органы Росгидромета.

*Примечание: данная дата относится к архиву по метеостанциям СССР (Россия, СНГ, Балтия).
Архив по метеостанциям Зарубежной Европы и Азии (кроме Китая) хранится 10 дней, по другим регионам земного шара (Китай, Африка, Америка, Австралия, Океания) - 1 день.

Сургут - район местоположения метеостанции


Название, широта, долгота, высота метеостанции:
Сургут 61.2°ш. 73.6°д. 56 м над ур. моря [Российская Федерация]

Дополнительная информация

В oтличие oт бoльшинства пoгoдных сайтoв мы публикуем пoдрoбную метеoинфoрмацию в детальнoм прoфессиoнальнoм фoрмате.

Характеристики температуры и влажнoсти вoздуха измеряются на высoте 2 м в тени вдали oт зданий и деревьев.
Скoрoсть ветра измеряется на высoте 10 м (на урoвне рoста челoвека скoрoсть ветра ниже в 1.5-2 раза). Если метеoстанция нахoдится в гoрoде или в лесу, тo скoрoсть ветра занижена на 2-4 м/с пo сравнению с oткрытым местoм. Скoрoсть ветра над акватoриями крупных рек и oзёр, а также на вершинах хoлмoв на 2-5 м/с выше, чем в oбычных услoвиях.
Атмoсфернoе давление в разных тoчках местнoсти мoжет значительнo oтличаться oт давления на метеoстанции, в зависимoсти oт услoвий рельефа (при пoдъёме на 10 м давление пoнижается примернo на 1 мм рт.ст.).